FW3118 Weather Reports


time (UTC)temp
F
wind
direction
speed
knots
gust
knots
rain 1hr
in
rain 24hr
in
rain mn
in
humidity
%
barometer
mb
20260504081600 42 267 2.6 7.8 0.00 0.00 0.00 69 950.5
20260504044546 44 265 2.6 5.2 0.00 0.00 0.00 65 950.6
20260504043047 45 259 2.6 5.2 0.00 0.00 0.00 63 950.8
20260504041543 46 257 2.6 4.3 0.00 0.00 0.00 62 950.7
20260504040043 45 257 1.7 3.5 0.00 0.00 0.00 65 950.6
20260504034544 46 336 0.9 2.6 0.00 0.00 0.00 64 950.7
20260504033043 47 340 0.0 0.0 0.00 0.00 0.00 60 950.6
20260504031546 47 340 0.0 3.5 0.00 0.00 0.00 61 950.8
20260504030044 47 344 1.7 5.2 0.00 0.00 0.00 60 950.9
20260504024543 47 321 1.7 5.2 0.00 0.00 0.00 60 951.0
20260504023042 47 351 2.6 7.8 0.00 0.00 0.00 60 951.2
20260504021542 47 330 2.6 7.0 0.00 0.00 0.00 60 951.0
20260504020041 47 355 2.6 7.8 0.00 0.00 0.00 60 951.0
20260504014553 47 91 3.5 8.7 0.00 0.00 0.00 60 951.0
20260504013041 47 9 2.6 7.0 0.00 0.00 0.00 58 950.9
20260504011539 48 12 4.3 10.4 0.00 0.00 0.00 56 951.0
20260504010037 48 5 4.3 10.4 0.00 0.00 0.00 55 950.8
20260504004537 48 13 5.2 13.0 0.00 0.00 0.00 55 950.7
20260504003041 48 319 1.7 4.3 0.00 0.00 0.00 56 950.4
20260504001547 47 299 0.0 0.0 0.00 0.00 0.00 59 950.1
20260504000043 47 299 0.0 1.7 0.00 0.00 0.00 56 949.9
20260503234538 48 298 0.9 2.6 0.00 0.00 0.00 55 949.9
20260503233037 49 283 0.9 4.3 0.00 0.00 0.00 57 949.8
20260503231542 49 294 0.9 3.5 0.00 0.00 0.00 56 949.8
20260503230037 49 331 1.7 7.8 0.00 0.00 0.00 54 949.7
20260503224539 50 16 2.6 12.2 0.00 0.00 0.00 52 949.9
20260503223034 50 342 2.6 9.6 0.00 0.00 0.00 53 949.8
20260503221539 50 35 4.3 13.0 0.00 0.00 0.00 51 950.1
20260503220033 51 321 7.0 13.9 0.00 0.00 0.00 51 950.1
20260503214534 49 11 6.1 16.5 0.00 0.00 0.00 53 950.1
20260503213035 49 355 7.0 16.5 0.00 0.00 0.00 52 950.1
20260503211534 49 333 9.6 17.4 0.00 0.00 0.00 53 950.1
20260503210134 49 5 8.7 23.5 0.00 0.00 0.00 51 950.0
20260503204537 49 355 3.5 14.8 0.00 0.00 0.00 51 949.6
20260503203036 50 31 4.3 13.9 0.00 0.00 0.00 47 949.7
20260503201536 49 351 8.7 20.0 0.00 0.00 0.00 46 949.9
20260503200042 50 16 7.8 13.9 0.00 0.00 0.00 45 949.9
20260503194531 50 19 5.2 17.4 0.00 0.00 0.00 46 950.1
20260503193038 50 5 8.7 18.2 0.00 0.00 0.00 44 950.3
20260503191538 50 5 4.3 12.2 0.00 0.00 0.00 45 950.4
20260503190044 50 15 9.6 15.6 0.00 0.00 0.00 43 950.4
20260503184536 51 328 7.8 19.1 0.00 0.00 0.00 41 950.6
20260503183036 50 348 7.8 17.4 0.00 0.00 0.00 43 950.8
20260503181534 50 355 10.4 17.4 0.00 0.00 0.00 43 950.9
20260503180032 48 355 9.6 18.2 0.00 0.00 0.00 47 951.1
20260503174530 48 306 6.1 15.6 0.00 0.00 0.00 46 951.1
20260503173031 46 13 7.8 13.9 0.00 0.00 0.00 44 951.2
20260503171524 48 355 7.0 15.6 0.00 0.00 0.00 44 951.5